,,,PA_Meas_PMT16A,,PR_Meas_QMR101_102,,RH_Meas_QMH101,,SR_Meas_QMS101,,TA_Meas_QMH101,,GenWind,,GenWind,
date,time,status,PA,status,PR,status,RH,status,SR,status,TA,status,DirAvg,status,SpdAvg,
2008-06-15, 00:00:04,VALID,1004.41,VALID,0,VALID,90.2878,VALID,0,VALID,25.1072,VALID,357,VALID,0,
2008-06-15, 00:01:04,VALID,1004.39,VALID,0,VALID,90.2954,VALID,0,VALID,25.1072,VALID,357,VALID,0.208203,
2008-06-15, 00:02:04,VALID,1004.37,VALID,0,VALID,90.4251,VALID,0,VALID,25.0663,VALID,357,VALID,0.203516,
2008-06-15, 00:03:04,VALID,1004.32,VALID,0,VALID,90.448,VALID,0.100563,VALID,25.0877,VALID,357,VALID,0.269141,
2008-06-15, 00:04:04,VALID,1004.3,VALID,0,VALID,90.5243,VALID,0,VALID,25.0663,VALID,357,VALID,0.114844,
2008-06-15, 00:05:04,VALID,1004.24,VALID,0,VALID,90.5243,VALID,0,VALID,25.0682,VALID,357,VALID,0.0261719,
2008-06-15, 00:06:04,VALID,1004.25,VALID,0,VALID,90.5624,VALID,0,VALID,25.0877,VALID,357,VALID,0.0335938,
2008-06-15, 00:07:04,VALID,1004.23,VALID,0,VALID,90.5167,VALID,0,VALID,25.0682,VALID,357,VALID,0,
2008-06-15, 00:08:04,VALID,1004.19,VALID,0,VALID,90.5472,VALID,0,VALID,25.0877,VALID,336,VALID,0.0636719,
2008-06-15, 00:09:04,VALID,1004.2,VALID,0,VALID,90.593,VALID,0,VALID,25.0877,VALID,336,VALID,0,
2008-06-15, 00:10:04,VALID,1004.19,VALID,0,VALID,90.6769,VALID,0,VALID,25.0682,VALID,336,VALID,0,
2008-06-15, 00:11:04,VALID,1004.19,VALID,0,VALID,90.7226,VALID,0,VALID,25.0682,VALID,280,VALID,0.380078,
2008-06-15, 00:12:04,VALID,1004.18,VALID,0,VALID,90.6998,VALID,0,VALID,25.1091,VALID,281,VALID,0.403906,
2008-06-15, 00:13:04,VALID,1004.18,VALID,0,VALID,90.6311,VALID,0,VALID,25.1072,VALID,293,VALID,0.458203,
2008-06-15, 00:14:04,VALID,1004.16,VALID,0,VALID,90.509,VALID,0,VALID,25.1461,VALID,298,VALID,0.205469,
2008-06-15, 00:15:04,VALID,1004.15,VALID,0,VALID,90.4022,VALID,0,VALID,25.1461,VALID,298,VALID,0,
2008-06-15, 00:16:04,VALID,1004.15,VALID,0,VALID,90.4022,VALID,0,VALID,25.1461,VALID,298,VALID,0.00507812,
2008-06-15, 00:17:04,VALID,1004.15,VALID,0,VALID,90.3412,VALID,0,VALID,25.1656,VALID,302,VALID,0.021875,
2008-06-15, 00:18:04,VALID,1004.17,VALID,0,VALID,90.387,VALID,0,VALID,25.1461,VALID,302,VALID,0.0460938,
2008-06-15, 00:19:04,VALID,1004.18,VALID,0,VALID,90.4709,VALID,0,VALID,25.187,VALID,322,VALID,0.39375,
2008-06-15, 00:20:04,VALID,1004.18,VALID,0,VALID,90.5548,VALID,0,VALID,25.187,VALID,338,VALID,0.417578,
2008-06-15, 00:21:04,VALID,1004.17,VALID,0,VALID,90.6082,VALID,0,VALID,25.187,VALID,341,VALID,0.103125,
2008-06-15, 00:22:04,VALID,1004.13,VALID,0,VALID,90.6998,VALID,0,VALID,25.1656,VALID,341,VALID,0.656641,
2008-06-15, 00:23:04,VALID,1004.12,VALID,0,VALID,90.7226,VALID,0,VALID,25.187,VALID,356,VALID,0.782031,
2008-06-15, 00:24:04,VALID,1004.12,VALID,0,VALID,90.715,VALID,0,VALID,25.1851,VALID,356,VALID,0.146875,
2008-06-15, 00:25:04,VALID,1004.07,VALID,0,VALID,90.6998,VALID,0,VALID,25.2046,VALID,294,VALID,0.771094,
2008-06-15, 00:26:04,VALID,1004.06,VALID,0,VALID,90.6006,VALID,0,VALID,25.2046,VALID,300,VALID,1.27734,
2008-06-15, 00:27:04,VALID,1004.04,VALID,0,VALID,90.2954,VALID,0,VALID,25.263,VALID,290,VALID,1.66367,
2008-06-15, 00:28:04,VALID,1004.04,VALID,0,VALID,89.9674,VALID,0,VALID,25.3409,VALID,323,VALID,1.25664,
2008-06-15, 00:29:04,VALID,1004.04,VALID,0,VALID,89.6927,VALID,0,VALID,25.4207,VALID,299,VALID,1.31484,
2008-06-15, 00:30:04,VALID,1004.01,VALID,0,VALID,89.5631,VALID,0,VALID,25.4383,VALID,294,VALID,2.01133,
2008-06-15, 00:31:04,VALID,1004.01,VALID,0,VALID,89.2503,VALID,0,VALID,25.5181,VALID,315,VALID,1.4332,
2008-06-15, 00:32:04,VALID,1003.98,VALID,0,VALID,88.8841,VALID,0,VALID,25.5357,VALID,289,VALID,1.66953,
2008-06-15, 00:33:04,VALID,1003.99,VALID,0,VALID,88.7391,VALID,0,VALID,25.5746,VALID,295,VALID,1.075,
2008-06-15, 00:34:04,VALID,1003.93,VALID,0,VALID,88.5255,VALID,0,VALID,25.5941,VALID,297,VALID,1.24258,
2008-06-15, 00:35:04,VALID,1003.91,VALID,0,VALID,88.4111,VALID,0,VALID,25.6136,VALID,353,VALID,0.392969,
2008-06-15, 00:36:04,VALID,1003.91,VALID,0,VALID,88.289,VALID,0,VALID,25.6136,VALID,325,VALID,0.399219,
2008-06-15, 00:37:04,VALID,1003.91,VALID,0,VALID,88.1822,VALID,0,VALID,25.633,VALID,312,VALID,0.701953,
2008-06-15, 00:38:04,VALID,1003.92,VALID,0,VALID,88.2585,VALID,0,VALID,25.5921,VALID,307,VALID,0.135937,
2008-06-15, 00:39:04,VALID,1003.92,VALID,0,VALID,88.2738,VALID,0,VALID,25.5532,VALID,290,VALID,0.685938,
2008-06-15, 00:40:04,VALID,1003.91,VALID,0,VALID,88.3348,VALID,0,VALID,25.5532,VALID,284,VALID,0.131641,
2008-06-15, 00:41:04,VALID,1003.9,VALID,0,VALID,88.4264,VALID,0,VALID,25.5337,VALID,273,VALID,0.606641,
2008-06-15, 00:42:04,VALID,1003.91,VALID,0,VALID,88.5026,VALID,0,VALID,25.5142,VALID,294,VALID,1.01797,
2008-06-15, 00:43:04,VALID,1003.88,VALID,0,VALID,88.5103,VALID,0,VALID,25.5357,VALID,292,VALID,1.21133,
2008-06-15, 00:44:04,VALID,1003.88,VALID,0,VALID,88.5866,VALID,0,VALID,25.4948,VALID,299,VALID,1.13203,
2008-06-15, 00:45:04,VALID,1003.86,VALID,0,VALID,88.6171,VALID,0,VALID,25.4948,VALID,297,VALID,1.00977,
2008-06-15, 00:46:04,VALID,1003.83,VALID,0,VALID,88.6934,VALID,0,VALID,25.4772,VALID,281,VALID,1.00273,
2008-06-15, 00:47:04,VALID,1003.78,VALID,0,VALID,88.8536,VALID,0,VALID,25.4772,VALID,295,VALID,0.307031,
2008-06-15, 00:48:04,VALID,1003.73,VALID,0,VALID,88.7849,VALID,0,VALID,25.4558,VALID,329,VALID,0.380078,
2008-06-15, 00:49:04,VALID,1003.69,VALID,0,VALID,88.3653,VALID,0,VALID,25.4363,VALID,293,VALID,1.43008,
2008-06-15, 00:50:04,VALID,1003.63,VALID,0,VALID,88.1593,VALID,0,VALID,25.4169,VALID,338,VALID,0.7125,
2008-06-15, 00:51:04,VALID,1003.62,VALID,0,VALID,88.1899,VALID,0,VALID,25.4363,VALID,305,VALID,0.406641,
2008-06-15, 00:52:04,VALID,1003.59,VALID,0,VALID,88.1059,VALID,0,VALID,25.4383,VALID,304,VALID,0.576172,
2008-06-15, 00:53:04,VALID,1003.57,VALID,0,VALID,87.5033,VALID,0,VALID,25.4188,VALID,293,VALID,0.896484,
2008-06-15, 00:54:04,VALID,1003.53,VALID,0,VALID,87.0989,VALID,0,VALID,25.4188,VALID,291,VALID,1.37773,
2008-06-15, 00:55:04,VALID,1003.51,VALID,0,VALID,86.6793,VALID,0,VALID,25.4188,VALID,289,VALID,0.972266,
2008-06-15, 00:56:04,VALID,1003.49,VALID,0,VALID,86.6107,VALID,0,VALID,25.4577,VALID,294,VALID,0.867969,
2008-06-15, 00:57:04,VALID,1003.46,VALID,0,VALID,86.6107,VALID,0,VALID,25.4577,VALID,295,VALID,0.515625,
2008-06-15, 00:58:04,VALID,1003.44,VALID,0,VALID,86.7556,VALID,0,VALID,25.4383,VALID,353,VALID,0.530469,
2008-06-15, 00:59:04,VALID,1003.41,VALID,0,VALID,86.8243,VALID,0,VALID,25.3974,VALID,357,VALID,0.904297,
2008-06-15, 01:00:04,VALID,1003.39,VALID,0,VALID,87.0837,VALID,0,VALID,25.3993,VALID,264,VALID,0.207422,
2008-06-15, 01:01:04,VALID,1003.4,VALID,0,VALID,87.2515,VALID,0,VALID,25.3604,VALID,264,VALID,0.123438,
2008-06-15, 01:02:04,VALID,1003.36,VALID,0,VALID,87.0837,VALID,0,VALID,25.3195,VALID,290,VALID,1.05938,
2008-06-15, 01:03:04,VALID,1003.36,VALID,0,VALID,87.0837,VALID,0,VALID,25.3409,VALID,294,VALID,0.147656,
2008-06-15, 01:04:04,VALID,1003.34,VALID,0,VALID,87.076,VALID,0,VALID,25.3409,VALID,312,VALID,0.640625,
2008-06-15, 01:05:04,VALID,1003.35,VALID,0,VALID,87.1676,VALID,0,VALID,25.3409,VALID,322,VALID,0.410156,
2008-06-15, 01:06:04,VALID,1003.36,VALID,0,VALID,87.1752,VALID,0,VALID,25.3195,VALID,302,VALID,0.591016,
2008-06-15, 01:07:04,VALID,1003.34,VALID,0,VALID,87.2362,VALID,0,VALID,25.3214,VALID,289,VALID,1.02617,
2008-06-15, 01:08:04,VALID,1003.3,VALID,0,VALID,87.3965,VALID,0,VALID,25.3214,VALID,289,VALID,0.676172,
2008-06-15, 01:09:04,VALID,1003.27,VALID,0,VALID,87.488,VALID,0,VALID,25.3428,VALID,302,VALID,0.382031,
2008-06-15, 01:10:04,VALID,1003.29,VALID,0,VALID,87.6635,VALID,0,VALID,25.2825,VALID,302,VALID,0,
2008-06-15, 01:11:04,VALID,1003.25,VALID,0,VALID,87.8313,VALID,0,VALID,25.263,VALID,302,VALID,0,
2008-06-15, 01:12:04,VALID,1003.21,VALID,0,VALID,87.8618,VALID,0,VALID,25.2435,VALID,307,VALID,0.24375,
2008-06-15, 01:13:04,VALID,1003.17,VALID,0,VALID,87.8542,VALID,0,VALID,25.2046,VALID,357,VALID,0.466797,
2008-06-15, 01:14:04,VALID,1003.14,VALID,0,VALID,87.7321,VALID,0,VALID,25.1851,VALID,344,VALID,1.05742,
2008-06-15, 01:15:04,VALID,1003.18,VALID,0,VALID,87.6635,VALID,0,VALID,25.1248,VALID,334,VALID,0.578125,
2008-06-15, 01:16:04,VALID,1003.19,VALID,0,VALID,87.6329,VALID,0,VALID,25.1461,VALID,272,VALID,0.471094,
2008-06-15, 01:17:04,VALID,1003.2,VALID,0,VALID,87.6406,VALID,0,VALID,25.1053,VALID,275,VALID,0.111328,
2008-06-15, 01:18:04,VALID,1003.15,VALID,0,VALID,87.7626,VALID,0,VALID,25.1267,VALID,275,VALID,0.225391,
2008-06-15, 01:19:04,VALID,1003.08,VALID,0,VALID,87.6253,VALID,0,VALID,25.1053,VALID,324,VALID,0.564453,
2008-06-15, 01:20:04,VALID,1003.04,VALID,0,VALID,87.7092,VALID,0,VALID,25.1072,VALID,292,VALID,0.421875,
2008-06-15, 01:21:04,VALID,1003.06,VALID,0,VALID,87.6863,VALID,0,VALID,25.1072,VALID,291,VALID,0.513281,
2008-06-15, 01:22:04,VALID,1003.04,VALID,0,VALID,87.4727,VALID,0,VALID,25.0858,VALID,287,VALID,1.31094,
2008-06-15, 01:23:04,VALID,1003.06,VALID,0,VALID,87.4499,VALID,0,VALID,25.1072,VALID,289,VALID,0.935156,
2008-06-15, 01:24:04,VALID,1003.04,VALID,0,VALID,87.4575,VALID,0,VALID,25.1091,VALID,280,VALID,0.24375,
2008-06-15, 01:25:04,VALID,1003.03,VALID,0,VALID,87.3202,VALID,0,VALID,25.0877,VALID,285,VALID,0.717969,
2008-06-15, 01:26:04,VALID,1003.02,VALID,0,VALID,87.282,VALID,0,VALID,25.0877,VALID,285,VALID,0.249609,
2008-06-15, 01:27:04,VALID,1003.03,VALID,0,VALID,87.2134,VALID,0,VALID,25.0663,VALID,287,VALID,0.678125,
2008-06-15, 01:28:04,VALID,1003.04,VALID,0,VALID,87.4041,VALID,0,VALID,25.0682,VALID,284,VALID,0.200391,
2008-06-15, 01:29:04,VALID,1003.05,VALID,0,VALID,87.4041,VALID,0,VALID,25.0488,VALID,325,VALID,0.432813,
2008-06-15, 01:30:04,VALID,1003.06,VALID,0,VALID,87.4956,VALID,0,VALID,25.0293,VALID,329,VALID,0.314063,
2008-06-15, 01:31:04,VALID,1003.06,VALID,0,VALID,87.4651,VALID,0,VALID,25.0098,VALID,337,VALID,0.420312,
2008-06-15, 01:32:04,VALID,1003.05,VALID,0,VALID,87.488,VALID,0,VALID,24.9885,VALID,352,VALID,0.329688,
2008-06-15, 01:33:04,VALID,1003.01,VALID,0,VALID,87.3202,VALID,0,VALID,24.9709,VALID,344,VALID,1.20273,
2008-06-15, 01:34:04,VALID,1003.01,VALID,0,VALID,87.3659,VALID,0,VALID,24.9319,VALID,307,VALID,0.000390625,
2008-06-15, 01:35:04,VALID,1003,VALID,0,VALID,87.4346,VALID,0,VALID,24.9319,VALID,289,VALID,0.284766,
2008-06-15, 01:36:04,VALID,1002.94,VALID,0,VALID,87.2896,VALID,0,VALID,24.9125,VALID,289,VALID,0,
2008-06-15, 01:37:04,VALID,1002.92,VALID,0,VALID,87.2362,VALID,0,VALID,24.8716,VALID,304,VALID,0.0015625,
2008-06-15, 01:38:04,VALID,1002.86,VALID,0,VALID,87.1447,VALID,0,VALID,24.854,VALID,359,VALID,0.905469,
2008-06-15, 01:39:04,VALID,1002.87,VALID,0,VALID,87.16,VALID,0,VALID,24.8346,VALID,2,VALID,0.306641,
2008-06-15, 01:40:04,VALID,1002.89,VALID,0,VALID,87.3202,VALID,0,VALID,24.8132,VALID,328,VALID,0.330469,
2008-06-15, 01:41:04,VALID,1002.89,VALID,0,VALID,87.282,VALID,0,VALID,24.8346,VALID,288,VALID,0.281641,
2008-06-15, 01:42:04,VALID,1002.91,VALID,0,VALID,87.1828,VALID,0,VALID,24.7956,VALID,280,VALID,0.645703,
2008-06-15, 01:43:04,VALID,1002.92,VALID,0,VALID,87.2744,VALID,0,VALID,24.817,VALID,288,VALID,0.342969,
2008-06-15, 01:44:04,VALID,1002.93,VALID,0,VALID,87.1828,VALID,0,VALID,24.7956,VALID,287,VALID,0.741016,
2008-06-15, 01:45:04,VALID,1002.89,VALID,0,VALID,87.2744,VALID,0,VALID,24.7956,VALID,318,VALID,0.674219,
2008-06-15, 01:46:04,VALID,1002.86,VALID,0,VALID,87.3049,VALID,0,VALID,24.7956,VALID,345,VALID,0.228906,
2008-06-15, 01:47:04,VALID,1002.87,VALID,0,VALID,87.4422,VALID,0,VALID,24.7743,VALID,331,VALID,0.3375,
2008-06-15, 01:48:04,VALID,1002.88,VALID,0,VALID,87.5033,VALID,0,VALID,24.7761,VALID,310,VALID,0.580469,
2008-06-15, 01:49:04,VALID,1002.94,VALID,0,VALID,87.5872,VALID,0,VALID,24.778,VALID,286,VALID,0.611719,
2008-06-15, 01:50:04,VALID,1002.91,VALID,0,VALID,87.6558,VALID,0,VALID,24.7353,VALID,289,VALID,1.23242,
2008-06-15, 01:51:04,VALID,1002.9,VALID,0,VALID,87.8771,VALID,0,VALID,24.7567,VALID,286,VALID,0.219922,
2008-06-15, 01:52:04,VALID,1002.92,VALID,0,VALID,87.9076,VALID,0,VALID,24.7567,VALID,285,VALID,0.610156,
2008-06-15, 01:53:04,VALID,1002.95,VALID,0,VALID,88.0296,VALID,0,VALID,24.7372,VALID,299,VALID,0.203906,
2008-06-15, 01:54:04,VALID,1002.98,VALID,0,VALID,88.0831,VALID,0,VALID,24.7177,VALID,305,VALID,0.672266,
2008-06-15, 01:55:04,VALID,1002.95,VALID,0,VALID,88.1517,VALID,0,VALID,24.6983,VALID,238,VALID,0.454297,
2008-06-15, 01:56:04,VALID,1002.95,VALID,0,VALID,88.2814,VALID,0,VALID,24.6983,VALID,274,VALID,0.633984,
2008-06-15, 01:57:04,VALID,1002.96,VALID,0,VALID,88.3882,VALID,0,VALID,24.6788,VALID,292,VALID,0.563672,
2008-06-15, 01:58:04,VALID,1002.93,VALID,0,VALID,88.5789,VALID,0,VALID,24.6788,VALID,322,VALID,0.222266,
2008-06-15, 01:59:04,VALID,1002.96,VALID,0,VALID,88.7849,VALID,0,VALID,24.6398,VALID,356,VALID,0.0667969,
2008-06-15, 02:00:04,VALID,1002.96,VALID,0,VALID,88.9222,VALID,0,VALID,24.6398,VALID,351,VALID,0.210547,
2008-06-15, 02:01:04,VALID,1002.99,VALID,0,VALID,89.0748,VALID,0,VALID,24.6204,VALID,276,VALID,0.417578,
2008-06-15, 02:02:04,VALID,1002.99,VALID,0,VALID,89.1969,VALID,0,VALID,24.6222,VALID,265,VALID,0.590625,
2008-06-15, 02:03:04,VALID,1002.99,VALID,0,VALID,89.2579,VALID,0,VALID,24.6009,VALID,307,VALID,0.88125,
2008-06-15, 02:04:04,VALID,1002.99,VALID,0,VALID,89.3037,VALID,0,VALID,24.6009,VALID,312,VALID,0.0886719,
2008-06-15, 02:05:04,VALID,1003,VALID,0,VALID,89.4868,VALID,0,VALID,24.6028,VALID,301,VALID,0.712891,
2008-06-15, 02:06:04,VALID,1002.97,VALID,0,VALID,89.6317,VALID,0,VALID,24.5601,VALID,355,VALID,0.407031,
2008-06-15, 02:07:04,VALID,1002.99,VALID,0,VALID,89.8072,VALID,0,VALID,24.6009,VALID,279,VALID,0.648828,
2008-06-15, 02:08:04,VALID,1003,VALID,0,VALID,89.9521,VALID,0,VALID,24.6009,VALID,293,VALID,0.624219,
2008-06-15, 02:09:04,VALID,1002.99,VALID,0,VALID,89.9598,VALID,0,VALID,24.6222,VALID,284,VALID,0.868359,
2008-06-15, 02:10:04,VALID,1002.99,VALID,0,VALID,90.0132,VALID,0,VALID,24.6593,VALID,282,VALID,0.533594,
2008-06-15, 02:11:04,VALID,1002.99,VALID,0,VALID,89.9826,VALID,0,VALID,24.6807,VALID,292,VALID,1.02148,
2008-06-15, 02:12:04,VALID,1003.01,VALID,0,VALID,89.8987,VALID,0,VALID,24.7196,VALID,289,VALID,0.388281,
2008-06-15, 02:13:04,VALID,1003.03,VALID,0,VALID,89.8377,VALID,0,VALID,24.7372,VALID,298,VALID,0.178125,
2008-06-15, 02:14:04,VALID,1003.01,VALID,0,VALID,89.7614,VALID,0,VALID,24.7372,VALID,285,VALID,0.835938,
2008-06-15, 02:15:04,VALID,1003.02,VALID,0,VALID,89.7004,VALID,0,VALID,24.7567,VALID,302,VALID,0.422266,
2008-06-15, 02:16:04,VALID,1003.02,VALID,0,VALID,89.4868,VALID,0,VALID,24.7956,VALID,257,VALID,0.694531,
2008-06-15, 02:17:04,VALID,1003.04,VALID,0,VALID,89.4563,VALID,0,VALID,24.8151,VALID,258,VALID,0.294141,
2008-06-15, 02:18:04,VALID,1003.03,VALID,0,VALID,89.2426,VALID,0,VALID,24.8132,VALID,298,VALID,1.42422,
2008-06-15, 02:19:04,VALID,1003.04,VALID,0,VALID,89.1664,VALID,0,VALID,24.854,VALID,286,VALID,0.500781,
2008-06-15, 02:20:04,VALID,1003.02,VALID,0,VALID,89.113,VALID,0,VALID,24.8735,VALID,300,VALID,0.230859,
2008-06-15, 02:21:04,VALID,1003.01,VALID,0,VALID,89.0061,VALID,0,VALID,24.8735,VALID,338,VALID,0.725,
2008-06-15, 02:22:04,VALID,1002.98,VALID,0,VALID,89.0519,VALID,0,VALID,24.8735,VALID,359,VALID,0.603906,
2008-06-15, 02:23:04,VALID,1002.98,VALID,0,VALID,89.0748,VALID,0,VALID,24.8735,VALID,271,VALID,0.35625,
2008-06-15, 02:24:04,VALID,1002.99,VALID,0,VALID,89.0977,VALID,0,VALID,24.8346,VALID,304,VALID,0.613281,
2008-06-15, 02:25:04,VALID,1002.95,VALID,0,VALID,89.1969,VALID,0,VALID,24.854,VALID,336,VALID,0.936719,
2008-06-15, 02:26:04,VALID,1002.95,VALID,0,VALID,89.3189,VALID,0,VALID,24.8346,VALID,261,VALID,0.259766,
2008-06-15, 02:27:04,VALID,1002.93,VALID,0,VALID,89.3418,VALID,0,VALID,24.7937,VALID,281,VALID,0.726172,
2008-06-15, 02:28:04,VALID,1002.93,VALID,0,VALID,89.4105,VALID,0,VALID,24.7956,VALID,306,VALID,0.591797,
2008-06-15, 02:29:04,VALID,1002.91,VALID,0,VALID,89.4791,VALID,0,VALID,24.7956,VALID,296,VALID,0.735547,
2008-06-15, 02:30:04,VALID,1002.9,VALID,0,VALID,89.5402,VALID,0,VALID,24.7956,VALID,290,VALID,1.04102,
2008-06-15, 02:31:04,VALID,1002.91,VALID,0,VALID,89.6927,VALID,0,VALID,24.7761,VALID,298,VALID,0.913672,
2008-06-15, 02:32:04,VALID,1002.91,VALID,0,VALID,89.7538,VALID,0,VALID,24.7761,VALID,290,VALID,1.08008,
2008-06-15, 02:33:04,VALID,1002.87,VALID,0,VALID,89.8072,VALID,0,VALID,24.7761,VALID,309,VALID,0.645312,
2008-06-15, 02:34:04,VALID,1002.87,VALID,0,VALID,89.8835,VALID,0,VALID,24.7761,VALID,291,VALID,1.09297,
2008-06-15, 02:35:04,VALID,1002.91,VALID,0,VALID,90.0513,VALID,0,VALID,24.7956,VALID,289,VALID,0.59375,
2008-06-15, 02:36:04,VALID,1003.1,VALID,0,VALID,90.12,VALID,0,VALID,24.7956,VALID,294,VALID,1.04258,
2008-06-15, 02:37:04,VALID,1002.51,VALID,0,VALID,90.2649,VALID,0,VALID,24.7956,VALID,276,VALID,0.812109,
2008-06-15, 02:38:04,VALID,1003.23,VALID,0,VALID,90.4327,VALID,0,VALID,24.8151,VALID,336,VALID,0.985156,
2008-06-15, 07:18:04,VALID,1003.59,VALID,0,VALID,83.6659,VALID,155.068,VALID,26.7998,VALID,271,VALID,0.625,
2008-06-15, 07:19:04,VALID,1003.59,VALID,0,VALID,83.1701,VALID,159.091,VALID,26.8624,VALID,310,VALID,0.920703,
2008-06-15, 07:20:04,VALID,1003.59,VALID,0,VALID,82.6208,VALID,170.253,VALID,26.8798,VALID,238,VALID,0.741406,
2008-06-15, 07:21:04,VALID,1003.59,VALID,0,VALID,83.5286,VALID,169.549,VALID,26.8408,VALID,284,VALID,0.252344,
2008-06-15, 07:22:04,VALID,1003.57,VALID,0,VALID,83.0785,VALID,149.336,VALID,26.8388,VALID,252,VALID,0.697656,
2008-06-15, 07:23:04,VALID,1003.59,VALID,0,VALID,83.4142,VALID,120.977,VALID,26.8603,VALID,309,VALID,0.263281,
2008-06-15, 07:24:04,VALID,1003.59,VALID,0,VALID,83.1243,VALID,108.306,VALID,26.8039,VALID,320,VALID,0.726953,
2008-06-15, 07:25:04,VALID,1003.61,VALID,0,VALID,83.4752,VALID,110.217,VALID,26.7434,VALID,320,VALID,0.464844,
2008-06-15, 07:26:04,VALID,1003.62,VALID,0,VALID,83.2235,VALID,109.211,VALID,26.7239,VALID,353,VALID,0.908984,
2008-06-15, 07:27:04,VALID,1003.61,VALID,0,VALID,83.3226,VALID,118.262,VALID,26.685,VALID,3,VALID,0.931641,
2008-06-15, 07:28:04,VALID,1003.62,VALID,0,VALID,83.8185,VALID,123.491,VALID,26.6265,VALID,352,VALID,0.757422,
2008-06-15, 07:29:04,VALID,1003.61,VALID,0,VALID,83.9558,VALID,122.285,VALID,26.5681,VALID,344,VALID,0.971484,
2008-06-15, 07:30:04,VALID,1003.61,VALID,0,VALID,84.1008,VALID,127.313,VALID,26.5291,VALID,8,VALID,0.683203,
2008-06-15, 07:31:04,VALID,1003.6,VALID,0,VALID,83.8185,VALID,135.76,VALID,26.4707,VALID,347,VALID,1.30625,
2008-06-15, 07:32:04,VALID,1003.59,VALID,0,VALID,84.4517,VALID,140.486,VALID,26.4317,VALID,348,VALID,0.245703,
2008-06-15, 07:33:04,VALID,1003.6,VALID,0,VALID,84.4288,VALID,135.76,VALID,26.4727,VALID,332,VALID,0.959375,
2008-06-15, 07:34:04,VALID,1003.58,VALID,0,VALID,84.589,VALID,128.922,VALID,26.4707,VALID,281,VALID,0.641016,
2008-06-15, 07:35:04,VALID,1003.57,VALID,0,VALID,84.9781,VALID,128.218,VALID,26.4922,VALID,315,VALID,0.447656,
2008-06-15, 07:36:04,VALID,1003.59,VALID,0,VALID,84.8713,VALID,129.626,VALID,26.5096,VALID,356,VALID,0.808594,
2008-06-15, 07:37:04,VALID,1003.58,VALID,0,VALID,84.8866,VALID,128.922,VALID,26.5291,VALID,324,VALID,0.760547,
2008-06-15, 07:38:04,VALID,1003.59,VALID,0,VALID,84.7263,VALID,129.726,VALID,26.5291,VALID,341,VALID,0.449609,
2008-06-15, 07:39:04,VALID,1003.58,VALID,0,VALID,85.207,VALID,129.927,VALID,26.5486,VALID,275,VALID,0.338281,
2008-06-15, 07:40:04,VALID,1003.58,VALID,0,VALID,84.5433,VALID,129.022,VALID,26.5506,VALID,326,VALID,0.485547,
2008-06-15, 07:41:04,VALID,1003.58,VALID,0,VALID,84.3907,VALID,131.034,VALID,26.5116,VALID,355,VALID,1.04492,
2008-06-15, 07:42:04,VALID,1003.62,VALID,0,VALID,85.0391,VALID,131.637,VALID,26.4901,VALID,345,VALID,0.374219,
2008-06-15, 07:43:04,VALID,1003.64,VALID,0,VALID,84.5814,VALID,134.553,VALID,26.5116,VALID,3,VALID,0.569922,
2008-06-15, 07:44:04,VALID,1003.67,VALID,0,VALID,84.5204,VALID,138.777,VALID,26.5096,VALID,4,VALID,0.365234,
2008-06-15, 07:45:04,VALID,1003.7,VALID,0,VALID,83.9406,VALID,142.598,VALID,26.5311,VALID,355,VALID,0.841797,
2008-06-15, 07:46:04,VALID,1003.7,VALID,0,VALID,84.0703,VALID,145.816,VALID,26.5096,VALID,3,VALID,0.842188,
2008-06-15, 07:47:04,VALID,1003.71,VALID,0,VALID,84.1313,VALID,152.554,VALID,26.5291,VALID,343,VALID,0.491016,
2008-06-15, 07:48:04,VALID,1003.76,VALID,0,VALID,84.3754,VALID,159.392,VALID,26.5681,VALID,335,VALID,0.375391,
2008-06-15, 07:49:04,VALID,1003.77,VALID,0,VALID,83.8643,VALID,166.231,VALID,26.5681,VALID,349,VALID,1.33516,
2008-06-15, 07:50:04,VALID,1003.8,VALID,0,VALID,84.5356,VALID,171.661,VALID,26.5701,VALID,357,VALID,0.376172,
2008-06-15, 07:51:04,VALID,1003.83,VALID,0,VALID,84.2,VALID,176.991,VALID,26.5701,VALID,343,VALID,0.808984,
2008-06-15, 07:52:04,VALID,1003.86,VALID,0,VALID,84.7263,VALID,189.762,VALID,26.5701,VALID,5,VALID,0.483203,
2008-06-15, 07:53:04,VALID,1003.88,VALID,0,VALID,84.4059,VALID,197.707,VALID,26.6091,VALID,355,VALID,1.02266,
2008-06-15, 07:54:04,VALID,1003.9,VALID,0,VALID,84.94,VALID,203.841,VALID,26.6285,VALID,304,VALID,0.346875,
2008-06-15, 07:55:04,VALID,1003.91,VALID,0,VALID,84.5356,VALID,205.45,VALID,26.6675,VALID,356,VALID,0.697656,
2008-06-15, 07:56:04,VALID,1003.92,VALID,0,VALID,84.5661,VALID,207.059,VALID,26.7065,VALID,343,VALID,0.539453,
2008-06-15, 07:57:04,VALID,1003.97,VALID,0,VALID,84.4899,VALID,196.098,VALID,26.7649,VALID,355,VALID,0.825,
2008-06-15, 07:58:04,VALID,1003.98,VALID,0,VALID,84.5127,VALID,210.076,VALID,26.7844,VALID,1,VALID,0.682031,
2008-06-15, 07:59:04,VALID,1003.98,VALID,0,VALID,84.6043,VALID,213.093,VALID,26.8234,VALID,335,VALID,0.502344,
2008-06-15, 08:00:04,VALID,1003.99,VALID,0,VALID,84.2991,VALID,236.021,VALID,26.8214,VALID,349,VALID,0.9125,
2008-06-15, 08:01:04,VALID,1004.01,VALID,0,VALID,83.7346,VALID,242.457,VALID,26.8429,VALID,346,VALID,0.857031,
2008-06-15, 08:02:04,VALID,1003.99,VALID,0,VALID,83.6812,VALID,256.134,VALID,26.8819,VALID,352,VALID,0.904688,
2008-06-15, 08:03:04,VALID,1003.99,VALID,0,VALID,83.5896,VALID,269.006,VALID,26.9383,VALID,302,VALID,0.173438,
2008-06-15, 08:04:04,VALID,1004.01,VALID,0,VALID,84.0626,VALID,252.715,VALID,27.0377,VALID,294,VALID,0.258984,
2008-06-15, 08:05:04,VALID,1004.02,VALID,0,VALID,83.7727,VALID,281.174,VALID,27.1352,VALID,300,VALID,0.431641,
2008-06-15, 08:06:04,VALID,1004.02,VALID,0,VALID,83.3379,VALID,253.016,VALID,27.2131,VALID,351,VALID,0.617188,
2008-06-15, 08:07:04,VALID,1004.01,VALID,0,VALID,83.4142,VALID,267.699,VALID,27.3126,VALID,327,VALID,0.672656,
2008-06-15, 08:08:04,VALID,1003.99,VALID,0,VALID,82.2698,VALID,289.42,VALID,27.3885,VALID,331,VALID,0.301562,
2008-06-15, 08:09:04,VALID,1004.01,VALID,0,VALID,81.4612,VALID,321.399,VALID,27.4491,VALID,349,VALID,0.613281,
2008-06-15, 08:10:04,VALID,1003.99,VALID,0,VALID,81.4612,VALID,324.416,VALID,27.4839,VALID,281,VALID,1.01797,
2008-06-15, 08:11:04,VALID,1004.01,VALID,0,VALID,81.6672,VALID,354.987,VALID,27.5618,VALID,345,VALID,0.572266,
2008-06-15, 08:12:04,VALID,1003.98,VALID,0,VALID,80.8585,VALID,341.109,VALID,27.6203,VALID,298,VALID,1.16094,
2008-06-15, 08:13:04,VALID,1004.02,VALID,0,VALID,82.0791,VALID,295.454,VALID,27.6398,VALID,319,VALID,0.858984,
2008-06-15, 08:14:04,VALID,1004.01,VALID,0,VALID,81.9876,VALID,288.616,VALID,27.6983,VALID,267,VALID,0.910547,
2008-06-15, 08:15:04,VALID,1004.04,VALID,0,VALID,81.5222,VALID,258.246,VALID,27.7567,VALID,283,VALID,0.989844,
2008-06-15, 08:16:04,VALID,1004.02,VALID,0,VALID,80.8509,VALID,300.683,VALID,27.7957,VALID,318,VALID,0.802734,
2008-06-15, 08:17:04,VALID,1004.03,VALID,0,VALID,80.4313,VALID,344.73,VALID,27.7957,VALID,341,VALID,0.798437,
2008-06-15, 08:18:04,VALID,1004.06,VALID,0,VALID,80.7822,VALID,386.363,VALID,27.8152,VALID,296,VALID,1.16875,
2008-06-15, 08:19:04,VALID,1004.08,VALID,0,VALID,80.3321,VALID,416.029,VALID,27.8563,VALID,332,VALID,0.724219,
2008-06-15, 08:20:04,VALID,1004.08,VALID,0,VALID,79.7065,VALID,407.38,VALID,27.9127,VALID,297,VALID,1.45977,